"startDT [UTC]","vpos","CH4 [ppm]","stdev(CH4) [ppm]","CO2 [ppm]","stdev(CO2) [ppm]","H2O_reported [%]","stdev(H2O_reported)","CavityPressure [torr]","CavityTemp [C]","OutletValve","CH4_dry [ppm]","CO2_dry [ppm]","DasTemp [C]","EtalonTemp [C]","WarmBoxTemp [C]","MPVPosition","T_ECpre [C]","T_EC1 [C]","T_EC2 [C]","p_inlet [hPa]","p_in [hPa]","p_out [hPa]","T_inlet [C]","RH_inlet [%]","dwpt_inlet [C]","T_vent [C]","RH_vent [%]","dwpt_vent [C]","flow_vent [l min-1]","flow_inlet [l min-1]","dwpt_sample [C]","T_room [C]"
2013-11-16 00:00:00,0.0,1.90911,0.00030,400.301,0.000,0.1057,0.0020,140.008,45.000,31546.43614,1.91107,400.812,30.091,45.060,45.000,0.00,0.11,-272.58,-272.64,-15,562,2,17.2,4.3,-24.6,17.3,4.4,-24.0,5.73,2.54,-15.3,23.7
2013-11-16 00:01:00,0.0,1.90843,0.00019,400.272,0.033,0.1056,0.0008,139.998,45.000,31544.48277,1.91056,400.788,30.125,45.060,45.000,0.00,0.11,-272.58,-272.64,-15,563,2,17.2,4.3,-24.6,17.3,4.4,-24.1,5.73,2.63,-15.3,23.7
2013-11-16 00:02:00,0.0,1.90881,0.00021,400.224,0.001,0.1051,0.0018,139.994,45.000,31542.29028,1.91067,400.731,30.115,45.060,45.000,0.00,0.11,-272.58,-272.64,-15,562,2,17.2,4.3,-24.6,17.3,4.4,-24.1,5.73,2.71,-15.3,23.7
2013-11-16 00:03:00,0.0,1.90870,0.00014,400.163,0.039,0.1064,0.0011,139.999,45.000,31543.77875,1.91073,400.679,30.125,45.060,45.000,0.00,0.11,-272.58,-272.64,-15,562,2,17.2,4.3,-24.6,17.3,4.4,-24.1,5.73,2.53,-15.3,23.7
2013-11-16 00:04:00,0.0,1.90901,0.00019,400.181,0.000,0.1063,0.0008,140.007,45.000,31546.31139,1.91098,400.692,30.125,45.060,45.000,0.00,0.11,-272.58,-272.64,-15,563,2,17.2,4.3,-24.5,17.3,4.5,-24.0,5.73,2.64,-15.3,23.7
2013-11-16 00:05:00,0.0,1.90880,0.00034,400.205,0.016,0.1076,0.0012,140.007,45.000,31546.57331,1.91094,400.721,30.125,45.060,45.000,0.00,0.11,-272.58,-272.64,-15,562,2,17.2,4.3,-24.5,17.3,4.5,-24.0,5.73,2.70,-15.3,23.7
2013-11-16 00:06:00,0.0,1.90813,0.00034,400.216,0.000,0.1073,0.0011,139.999,45.000,31547.14441,1.91013,400.732,30.143,45.060,45.000,0.00,0.11,-272.58,-272.63,-15,563,2,17.2,4.3,-24.4,17.3,4.5,-23.9,5.73,2.53,-15.3,23.7
2013-11-16 00:07:00,0.0,1.90824,0.00028,400.229,0.023,0.1086,0.0024,140.004,45.000,31548.69763,1.91034,400.754,30.147,45.060,45.000,0.00,0.11,-272.58,-272.64,-15,562,2,17.2,4.3,-24.4,17.4,4.5,-23.8,5.73,2.65,-15.3,23.7
2013-11-16 00:08:00,0.0,1.90861,0.00039,400.205,0.016,0.1070,0.0016,140.006,45.000,31549.78580,1.91059,400.722,30.129,45.060,45.000,0.00,0.11,-272.58,-272.64,-15,562,2,17.2,4.3,-24.4,17.4,4.5,-23.9,5.73,2.69,-15.3,23.7
2013-11-16 00:09:00,0.0,1.90841,0.00019,400.212,0.011,0.1068,0.0011,139.991,45.000,31546.79226,1.91043,400.726,30.136,45.060,45.000,0.00,0.11,-272.58,-272.64,-15,563,2,17.2,4.3,-24.4,17.4,4.5,-23.9,5.73,2.53,-15.3,23.7
2013-11-16 00:10:00,0.0,1.90824,0.00027,400.188,0.026,0.1068,0.0018,140.010,45.000,31552.33920,1.91021,400.707,30.179,45.060,45.000,0.00,0.11,-272.58,-272.64,-15,562,2,17.2,4.3,-24.5,17.4,4.5,-23.9,5.73,2.64,-15.3,23.7
2013-11-16 00:11:00,0.0,1.90823,0.00028,400.175,0.024,0.1077,0.0005,139.995,45.000,31547.09242,1.91027,400.690,30.183,45.060,45.000,0.00,0.11,-272.58,-272.64,-15,563,2,17.2,4.3,-24.5,17.4,4.5,-23.9,5.73,2.69,-15.2,23.6
2013-11-16 00:12:00,0.0,1.90857,0.00013,400.180,0.008,0.1058,0.0009,140.005,45.000,31549.36270,1.91052,400.693,30.186,45.059,45.000,0.00,0.11,-272.58,-272.64,-15,562,2,17.2,4.3,-24.5,17.3,4.5,-24.0,5.73,2.53,-15.2,23.6
2013-11-16 00:13:00,0.0,1.90856,0.00020,400.249,0.000,0.1065,0.0009,140.003,45.000,31549.44640,1.91059,400.753,30.188,45.059,45.000,0.00,0.11,-272.58,-272.64,-15,562,2,17.2,4.3,-24.5,17.3,4.5,-24.0,5.73,2.64,-15.3,23.6
2013-11-16 00:14:00,0.0,1.90832,0.00032,400.235,0.011,0.1069,0.0015,140.010,45.000,31550.71302,1.91037,400.752,30.188,45.059,45.000,0.00,0.11,-272.58,-272.64,-15,563,2,17.2,4.3,-24.5,17.3,4.5,-24.0,5.73,2.70,-15.3,23.6
2013-11-16 00:15:00,0.0,1.90845,0.00030,400.193,0.000,0.1062,0.0014,140.005,45.000,31549.48914,1.91038,400.709,30.188,45.060,45.000,0.00,0.11,-272.58,-272.64,-15,562,2,17.2,4.3,-24.5,17.3,4.5,-24.0,5.73,2.54,-15.3,23.6
2013-11-16 00:16:00,0.0,1.90869,0.00017,400.187,0.005,0.1071,0.0011,140.003,45.000,31549.66001,1.91065,400.703,30.188,45.060,45.000,0.00,0.11,-272.58,-272.64,-15,562,2,17.2,4.3,-24.5,17.3,4.4,-24.0,5.73,2.63,-15.2,23.6
2013-11-16 00:17:00,0.0,1.90851,0.00043,400.160,0.012,0.1075,0.0022,139.998,45.000,31549.80596,1.91055,400.681,30.188,45.060,45.000,0.00,0.11,-272.58,-272.64,-15,562,2,17.2,4.3,-24.5,17.3,4.4,-24.0,5.73,2.71,-15.2,23.6
2013-11-16 00:18:00,0.0,1.90809,0.00037,400.152,0.002,0.1058,0.0016,140.008,45.000,31552.19341,1.91021,400.663,30.188,45.060,45.000,0.00,0.11,-272.58,-272.64,-15,562,2,17.2,4.3,-24.5,17.3,4.5,-24.0,5.73,2.53,-15.2,23.6
2013-11-16 00:19:00,0.0,1.90832,0.00018,400.149,0.000,0.1062,0.0005,140.004,45.000,31552.56158,1.91030,400.660,30.188,45.060,45.000,0.00,0.11,-272.58,-272.64,-15,562,2,17.2,4.3,-24.5,17.3,4.5,-24.0,5.73,2.62,-15.3,23.6
2013-11-16 00:20:00,0.0,1.90817,0.00027,400.176,0.014,0.1056,0.0026,139.995,45.000,31550.08601,1.91015,400.683,30.183,45.060,45.000,0.00,0.11,-272.58,-272.64,-15,562,2,17.2,4.3,-24.5,17.3,4.4,-24.1,5.73,2.71,-15.2,23.6
2013-11-16 00:21:00,0.0,1.90832,0.00038,400.145,0.027,0.1056,0.0011,140.007,45.000,31552.17798,1.91022,400.653,30.184,45.060,45.000,0.00,0.11,-272.58,-272.64,-15,562,2,17.2,4.3,-24.6,17.3,4.4,-24.1,5.73,2.55,-15.3,23.6
2013-11-16 00:22:00,0.0,1.90843,0.00032,400.179,0.000,0.1055,0.0011,139.999,45.000,31547.84847,1.91049,400.687,30.177,45.060,45.000,0.00,0.11,-272.58,-272.64,-15,562,2,17.2,4.3,-24.6,17.3,4.4,-24.1,5.73,2.61,-15.2,23.6
2013-11-16 00:23:00,0.0,1.90825,0.00046,400.192,0.013,0.1052,0.0023,139.998,45.000,31547.73414,1.91015,400.698,30.188,45.060,45.000,0.00,0.11,-272.59,-272.63,-15,562,2,17.2,4.3,-24.6,17.3,4.4,-24.1,5.73,2.71,-15.3,23.6
2013-11-16 00:24:00,0.0,1.90816,0.00038,400.209,0.000,0.1077,0.0023,139.999,45.000,31548.05210,1.91039,400.725,30.188,45.060,45.000,0.00,0.11,-272.58,-272.64,-15,562,2,17.2,4.3,-24.6,17.3,4.4,-24.1,5.73,2.56,-15.2,23.6
2013-11-16 00:25:00,0.0,1.90815,0.00024,400.147,0.068,0.1055,0.0017,140.002,45.000,31551.50250,1.91006,400.670,30.188,45.060,45.000,0.00,0.11,-272.58,-272.65,-15,562,2,17.2,4.3,-24.5,17.3,4.4,-24.0,5.73,2.59,-15.2,23.7
2013-11-16 00:26:00,0.0,1.90842,0.00030,400.072,0.000,0.1073,0.0015,140.006,45.000,31552.68076,1.91043,400.586,30.188,45.060,45.000,0.00,0.11,-272.58,-272.64,-15,562,2,17.2,4.3,-24.5,17.3,4.5,-24.0,5.73,2.72,-15.3,23.7
2013-11-16 00:27:00,0.0,1.90831,0.00028,400.130,0.029,0.1070,0.0020,140.004,45.000,31551.74147,1.91039,400.640,30.188,45.060,45.000,0.00,0.11,-272.58,-272.64,-15,563,2,17.2,4.3,-24.5,17.3,4.4,-24.0,5.73,2.58,-15.2,23.7
2013-11-16 00:28:00,0.0,1.90885,0.00025,400.142,0.004,0.1062,0.0018,139.994,45.000,31549.45895,1.91071,400.654,30.188,45.060,45.000,0.00,0.11,-272.58,-272.65,-15,562,2,17.2,4.2,-24.6,17.4,4.4,-24.1,5.73,2.57,-15.2,23.7
2013-11-16 00:29:00,0.0,1.90827,0.00012,400.137,0.000,0.1041,0.0009,140.004,45.000,31553.96299,1.91033,400.640,30.188,45.060,45.000,0.00,0.11,-272.58,-272.64,-15,563,2,17.2,4.2,-24.6,17.4,4.4,-24.1,5.73,2.72,-15.2,23.7
2013-11-16 00:30:00,0.0,1.90804,0.00035,400.119,0.020,0.1065,0.0006,140.004,45.000,31554.85018,1.91015,400.633,30.188,45.060,45.000,0.00,0.11,-272.58,-272.64,-15,563,2,17.2,4.2,-24.7,17.3,4.4,-24.1,5.73,2.60,-15.2,23.7
2013-11-16 00:31:00,0.0,1.90824,0.00048,400.128,0.024,0.1050,0.0022,140.002,45.000,31553.73603,1.91013,400.633,30.188,45.060,45.000,0.00,0.11,-272.58,-272.64,-15,562,2,17.2,4.3,-24.6,17.3,4.4,-24.1,5.73,2.55,-15.2,23.7
2013-11-16 00:32:00,0.0,1.90824,0.00020,400.170,0.000,0.1054,0.0015,139.999,45.000,31556.12761,1.91024,400.674,30.188,45.060,45.000,0.00,0.11,-272.58,-272.64,-15,563,2,17.2,4.2,-24.6,17.3,4.4,-24.1,5.73,2.71,-15.2,23.6
2013-11-16 00:33:00,0.0,1.90814,0.00044,400.170,0.000,0.1039,0.0008,139.991,45.000,31551.26334,1.91022,400.671,30.189,45.060,45.000,0.00,0.11,-272.58,-272.64,-15,562,2,17.2,4.2,-24.7,17.3,4.4,-24.2,5.73,2.63,-15.2,23.6
2013-11-16 00:34:00,0.0,1.90817,0.00025,400.170,0.000,0.1056,0.0007,140.002,45.000,31555.38947,1.91007,400.678,30.191,45.060,45.000,0.00,0.11,-272.58,-272.64,-15,562,2,17.2,4.2,-24.7,17.3,4.4,-24.2,5.73,2.54,-15.2,23.6
2013-11-16 00:35:00,0.0,1.90795,0.00044,400.131,0.026,0.1054,0.0024,139.997,45.000,31553.95739,1.90998,400.642,30.188,45.060,45.000,0.00,0.11,-272.58,-272.64,-15,562,2,17.2,4.2,-24.7,17.3,4.4,-24.2,5.73,2.69,-15.2,23.6
2013-11-16 00:36:00,0.0,1.90836,0.00033,400.154,0.004,0.1053,0.0014,140.004,45.000,31553.50239,1.91025,400.661,30.188,45.060,45.000,0.00,0.11,-272.58,-272.64,-15,562,2,17.2,4.2,-24.7,17.3,4.4,-24.2,5.73,2.65,-15.2,23.6
2013-11-16 00:37:00,0.0,1.90821,0.00044,400.207,0.000,0.1032,0.0003,140.004,45.000,31551.65473,1.91025,400.699,30.194,45.060,45.000,0.00,0.11,-272.58,-272.64,-15,562,2,17.2,4.2,-24.8,17.3,4.4,-24.3,5.73,2.53,-15.2,23.6
2013-11-16 00:38:00,0.0,1.90823,0.00015,400.161,0.022,0.1023,0.0010,140.000,45.000,31551.14815,1.91008,400.661,30.225,45.060,45.000,0.00,0.11,-272.58,-272.64,-15,562,2,17.2,4.2,-24.8,17.3,4.3,-24.3,5.73,2.70,-15.3,23.6
2013-11-16 00:39:00,0.0,1.90855,0.00025,400.161,0.013,0.1031,0.0010,140.003,45.000,31550.45383,1.91052,400.654,30.212,45.060,45.000,0.00,0.11,-272.59,-272.64,-15,562,2,17.2,4.2,-24.9,17.3,4.3,-24.3,5.73,2.65,-15.2,23.7
2013-11-16 00:40:00,0.0,1.90896,0.00043,400.127,0.029,0.1029,0.0009,139.998,45.000,31547.81570,1.91064,400.629,30.204,45.059,45.000,0.00,0.11,-272.57,-272.64,-15,562,2,17.2,4.1,-24.9,17.3,4.3,-24.4,5.73,2.53,-15.2,23.7
2013-11-16 00:41:00,0.0,1.90926,0.00039,400.124,0.008,0.1020,0.0025,140.000,45.001,31546.26712,1.91120,400.613,30.206,45.060,45.000,0.00,0.11,-272.58,-272.64,-15,562,2,17.2,4.1,-24.9,17.3,4.3,-24.4,5.73,2.69,-15.2,23.7
2013-11-16 00:42:00,0.0,1.90888,0.00040,400.128,0.002,0.1039,0.0008,140.009,45.000,31548.32299,1.91093,400.629,30.222,45.060,45.000,0.00,0.11,-272.58,-272.64,-14,562,2,17.2,4.2,-24.9,17.3,4.3,-24.4,5.73,2.65,-15.2,23.7
2013-11-16 00:43:00,0.0,1.90872,0.00028,400.121,0.000,0.1024,0.0011,139.998,45.000,31543.75581,1.91077,400.615,30.206,45.060,45.000,0.00,0.11,-272.57,-272.64,-15,562,2,17.2,4.2,-24.8,17.3,4.3,-24.3,5.73,2.53,-15.2,23.6
2013-11-16 00:44:00,0.0,1.90855,0.00016,400.104,0.025,0.1035,0.0020,139.996,45.000,31543.68141,1.91044,400.608,30.197,45.060,45.000,0.00,0.11,-272.58,-272.65,-15,562,2,17.2,4.2,-24.8,17.3,4.3,-24.3,5.73,2.68,-15.2,23.7
2013-11-16 00:45:00,0.0,1.90877,0.00030,400.083,0.007,0.1043,0.0009,139.998,45.000,31543.21540,1.91071,400.583,30.207,45.060,45.000,0.00,0.11,-272.58,-272.64,-15,563,2,17.2,4.2,-24.8,17.3,4.3,-24.3,5.73,2.67,-15.2,23.7
2013-11-16 00:46:00,0.0,1.90855,0.00041,400.059,0.039,0.1051,0.0011,139.998,45.000,31546.05500,1.91067,400.573,30.218,45.060,45.000,0.00,0.11,-272.58,-272.64,-15,562,2,17.3,4.2,-24.8,17.4,4.3,-24.3,5.73,2.53,-15.2,23.7
2013-11-16 00:47:00,0.0,1.90823,0.00033,400.025,0.051,0.1047,0.0018,139.999,45.000,31548.65483,1.91017,400.524,30.237,45.060,45.000,0.00,0.11,-272.58,-272.64,-15,562,2,17.3,4.2,-24.8,17.4,4.3,-24.2,5.73,2.65,-15.2,23.8
2013-11-16 00:48:00,0.0,1.90820,0.00015,400.027,0.025,0.1052,0.0028,140.004,45.000,31549.76393,1.91020,400.536,30.246,45.059,45.000,0.00,0.11,-272.58,-272.64,-15,563,2,17.3,4.2,-24.6,17.4,4.4,-24.1,5.73,2.69,-15.2,23.7
2013-11-16 00:49:00,0.0,1.90802,0.00027,400.033,0.000,0.1050,0.0018,140.001,45.000,31550.31109,1.91011,400.541,30.250,45.059,45.000,0.00,0.11,-272.58,-272.64,-15,562,2,17.3,4.2,-24.6,17.4,4.4,-24.1,5.73,2.54,-15.2,23.7
2013-11-16 00:50:00,0.0,1.90795,0.00045,400.011,0.012,0.1046,0.0026,140.001,45.000,31550.58389,1.90992,400.517,30.250,45.059,45.000,0.00,0.11,-272.58,-272.64,-15,563,2,17.3,4.2,-24.6,17.4,4.4,-24.1,5.73,2.62,-15.2,23.7
2013-11-16 00:51:00,0.0,1.90773,0.00043,400.005,0.000,0.1071,0.0012,139.997,45.000,31551.19971,1.90982,400.521,30.256,45.059,45.000,0.00,0.11,-272.58,-272.64,-15,563,2,17.3,4.2,-24.6,17.4,4.4,-24.1,5.73,2.71,-15.2,23.7
2013-11-16 00:52:00,0.0,1.90804,0.00031,400.005,0.000,0.1069,0.0016,139.998,45.000,31549.92341,1.90988,400.520,30.250,45.060,45.000,0.00,0.11,-272.58,-272.64,-15,562,2,17.3,4.2,-24.7,17.4,4.4,-24.1,5.73,2.57,-15.2,23.7
2013-11-16 00:53:00,0.0,1.90787,0.00020,399.911,0.049,0.1051,0.0013,140.000,45.000,31551.42553,1.90987,400.432,30.253,45.060,45.000,0.00,0.11,-272.58,-272.64,-15,563,2,17.3,4.2,-24.7,17.4,4.4,-24.1,5.73,2.58,-15.2,23.7
2013-11-16 00:54:00,0.0,1.90810,0.00019,399.864,0.035,0.1073,0.0017,139.999,45.000,31551.56662,1.91005,400.371,30.250,45.060,45.000,0.00,0.11,-272.58,-272.64,-15,563,2,17.3,4.2,-24.6,17.4,4.4,-24.1,5.73,2.71,-15.2,23.7
2013-11-16 00:55:00,0.0,1.90776,0.00034,399.883,0.010,0.1068,0.0020,139.999,45.000,31551.20240,1.90984,400.401,30.250,45.060,45.000,0.00,0.11,-272.58,-272.65,-15,562,2,17.2,4.2,-24.6,17.4,4.4,-24.0,5.73,2.61,-15.2,23.7
2013-11-16 00:56:00,0.0,1.90822,0.00027,399.876,0.003,0.1077,0.0008,139.990,45.000,31548.03067,1.91014,400.394,30.250,45.060,45.000,0.00,0.11,-272.58,-272.64,-15,563,2,17.3,4.2,-24.6,17.4,4.4,-24.0,5.73,2.55,-15.2,23.7
2013-11-16 00:57:00,0.0,1.90817,0.00028,399.916,0.000,0.1049,0.0015,139.998,45.000,31551.04589,1.91020,400.419,30.250,45.060,45.000,0.00,0.11,-272.58,-272.64,-15,562,2,17.3,4.2,-24.7,17.4,4.4,-24.1,5.73,2.69,-15.2,23.7
2013-11-16 00:58:00,0.0,1.90772,0.00035,399.866,0.042,0.1040,0.0016,140.000,45.000,31554.25489,1.90974,400.371,30.265,45.060,45.000,0.00,0.11,-272.58,-272.64,-15,562,2,17.2,4.2,-24.8,17.4,4.4,-24.2,5.73,2.66,-15.2,23.7
2013-11-16 00:59:00,0.0,1.90782,0.00035,399.877,0.005,0.1054,0.0013,140.004,45.000,31555.43964,1.90985,400.381,30.271,45.060,45.000,0.00,0.11,-272.58,-272.64,-15,563,2,17.2,4.2,-24.7,17.4,4.4,-24.2,5.73,2.54,-15.2,23.7
2013-11-16 01:00:00,0.0,1.90747,0.00034,399.789,0.002,0.1054,0.0014,140.000,45.000,31554.23769,1.90944,400.306,30.275,45.059,45.000,0.00,0.11,-272.58,-272.64,-15,562,2,17.2,4.2,-24.7,17.4,4.4,-24.1,5.73,2.64,-15.2,23.7
2013-11-16 01:01:00,0.0,1.90778,0.00031,399.786,0.000,0.1063,0.0029,140.003,45.000,31554.40290,1.90977,400.293,30.276,45.059,45.000,0.00,0.11,-272.58,-272.64,-15,563,2,17.2,4.2,-24.6,17.4,4.4,-24.0,5.73,2.70,-15.1,23.7
2013-11-16 01:02:00,0.0,1.90785,0.00033,399.793,0.006,0.1056,0.0012,140.007,45.000,31554.27553,1.90968,400.303,30.285,45.059,45.000,0.00,0.11,-272.58,-272.64,-15,563,2,17.2,4.3,-24.5,17.4,4.4,-24.0,5.73,2.56,-15.2,23.7
2013-11-16 01:03:00,0.0,1.90811,0.00030,399.816,0.013,0.1049,0.0006,140.001,45.000,31554.57358,1.91013,400.319,30.287,45.059,45.000,0.00,0.11,-272.58,-272.64,-15,562,2,17.2,4.2,-24.6,17.4,4.4,-24.0,5.73,2.59,-15.1,23.7
2013-11-16 01:04:00,0.0,1.90791,0.00035,399.825,0.000,0.1074,0.0015,140.007,45.000,31557.35596,1.91007,400.339,30.278,45.059,44.999,0.00,0.11,-272.58,-272.64,-15,563,2,17.3,4.2,-24.6,17.4,4.4,-24.0,5.73,2.71,-15.1,23.7
2013-11-16 01:05:00,0.0,1.90721,0.00028,399.689,0.024,0.1065,0.0014,139.999,45.000,31557.09508,1.90924,400.216,30.284,45.059,45.000,0.00,0.11,-272.58,-272.64,-15,563,2,17.3,4.3,-24.5,17.4,4.4,-24.0,5.73,2.60,-15.1,23.7
2013-11-16 01:06:00,0.0,1.90749,0.00035,399.660,0.023,0.1083,0.0013,140.007,45.000,31557.33610,1.90945,400.181,30.280,45.059,45.000,0.00,0.11,-272.58,-272.64,-15,562,2,17.4,4.3,-24.4,17.4,4.5,-23.9,5.73,2.55,-15.2,23.8
2013-11-16 01:07:00,0.0,1.90730,0.00025,399.648,0.029,0.1098,0.0003,139.998,45.000,31556.38707,1.90946,400.180,30.286,45.059,45.000,0.00,0.11,-272.58,-272.64,-15,563,2,17.4,4.3,-24.4,17.4,4.5,-23.9,5.73,2.69,-15.1,23.8
2013-11-16 01:08:00,0.0,1.90755,0.00038,399.645,0.000,0.1085,0.0011,140.008,45.000,31561.01763,1.90946,400.166,30.288,45.060,45.000,0.00,0.11,-272.58,-272.64,-15,563,2,17.4,4.3,-24.3,17.5,4.5,-23.8,5.73,2.66,-15.1,23.8
2013-11-16 01:09:00,0.0,1.90764,0.00016,399.645,0.000,0.1095,0.0013,140.007,45.000,31560.46638,1.90966,400.170,30.309,45.060,45.000,0.00,0.11,-272.58,-272.64,-15,563,2,17.4,4.3,-24.3,17.5,4.5,-23.8,5.73,2.54,-15.1,23.8
2013-11-16 01:10:00,0.0,1.90730,0.00035,399.634,0.017,0.1099,0.0019,139.999,45.000,31559.44899,1.90952,400.166,30.313,45.060,45.000,0.00,0.11,-272.58,-272.64,-15,564,2,17.4,4.3,-24.3,17.5,4.5,-23.8,5.73,2.63,-15.1,23.7
2013-11-16 01:11:00,0.0,1.90686,0.00031,399.608,0.000,0.1105,0.0012,140.002,45.000,31560.48651,1.90901,400.141,30.313,45.059,45.000,0.00,0.11,-272.58,-272.64,-15,563,2,17.4,4.3,-24.2,17.5,4.5,-23.7,5.73,2.70,-15.1,23.8
2013-11-16 01:12:00,0.0,1.90724,0.00027,399.598,0.009,0.1119,0.0023,140.003,45.000,31557.75427,1.90924,400.135,30.312,45.059,45.000,0.00,0.11,-272.58,-272.64,-15,563,2,17.4,4.4,-24.1,17.5,4.6,-23.6,5.73,2.58,-15.1,23.8
2013-11-16 01:13:00,0.0,1.90766,0.00054,399.545,0.035,0.1095,0.0012,140.011,45.000,31560.60468,1.90961,400.083,30.313,45.060,45.000,0.00,0.11,-272.58,-272.64,-15,564,2,17.4,4.4,-24.2,17.5,4.6,-23.6,5.73,2.56,-15.1,23.8
2013-11-16 01:14:00,0.0,1.90737,0.00082,399.526,0.000,0.1094,0.0015,140.010,45.000,31562.57020,1.90933,400.054,30.313,45.060,45.000,0.00,0.11,-272.58,-272.65,-15,563,2,17.4,4.3,-24.2,17.5,4.5,-23.7,5.73,2.69,-15.1,23.8
2013-11-16 01:15:00,0.0,1.90771,0.00059,399.515,0.017,0.1092,0.0028,140.000,45.000,31558.94103,1.90985,400.045,30.313,45.060,45.000,0.00,0.11,-272.58,-272.64,-15,563,2,17.3,4.3,-24.4,17.5,4.5,-23.8,5.73,2.65,-15.1,23.7
2013-11-16 01:16:00,0.0,1.90732,0.00020,399.528,0.036,0.1083,0.0012,140.000,45.000,31558.83100,1.90947,400.039,30.313,45.060,45.000,0.00,0.11,-272.58,-272.64,-15,564,2,17.4,4.3,-24.4,17.5,4.5,-23.9,5.73,2.54,-15.1,23.7
2013-11-16 01:17:00,0.0,1.90713,0.00053,399.560,0.000,0.1087,0.0013,139.998,45.000,31561.45086,1.90933,400.084,30.313,45.060,45.000,0.00,0.11,-272.58,-272.64,-15,563,2,17.3,4.3,-24.4,17.4,4.5,-23.9,5.73,2.63,-15.1,23.7
2013-11-16 01:18:00,0.0,1.90695,0.00044,399.565,0.018,0.1086,0.0015,139.998,45.000,31561.46205,1.90906,400.085,30.313,45.060,45.000,0.00,0.11,-272.58,-272.64,-15,563,2,17.3,4.3,-24.4,17.4,4.5,-23.8,5.73,2.70,-15.1,23.7
2013-11-16 01:19:00,0.0,1.90739,0.00031,399.559,0.015,0.1089,0.0006,140.002,45.000,31560.92608,1.90920,400.087,30.313,45.060,45.000,0.00,0.11,-272.58,-272.64,-15,563,2,17.4,4.3,-24.4,17.4,4.5,-23.8,5.73,2.58,-15.1,23.7
2013-11-16 01:20:00,0.0,1.90712,0.00044,399.565,0.015,0.1085,0.0022,139.999,45.000,31560.85093,1.90934,400.083,30.316,45.060,45.000,0.00,0.11,-272.58,-272.64,-15,563,2,17.3,4.3,-24.4,17.5,4.5,-23.8,5.73,2.57,-15.1,23.7
2013-11-16 01:21:00,0.0,1.90697,0.00024,399.552,0.041,0.1082,0.0006,140.003,45.000,31563.20003,1.90898,400.078,30.315,45.060,45.000,0.00,0.11,-272.58,-272.64,-15,563,2,17.4,4.3,-24.3,17.5,4.5,-23.8,5.73,2.70,-15.0,23.8
2013-11-16 01:22:00,0.0,1.90670,0.00031,399.472,0.064,0.1110,0.0023,140.002,45.000,31562.05410,1.90886,400.019,30.338,45.060,45.000,0.00,0.11,-272.58,-272.64,-15,563,2,17.4,4.4,-24.2,17.4,4.5,-23.7,5.73,2.65,-15.1,23.8
2013-11-16 01:23:00,0.0,1.90651,0.00028,399.381,0.000,0.1129,0.0008,139.997,45.000,31560.87663,1.90862,399.923,30.317,45.060,45.000,0.00,0.11,-272.58,-272.64,-15,563,2,17.3,4.4,-24.0,17.4,4.6,-23.5,5.73,2.54,-15.1,23.8
2013-11-16 01:24:00,0.0,1.90645,0.00033,399.381,0.000,0.1143,0.0014,140.001,45.000,31559.01945,1.90856,399.931,30.313,45.060,45.000,0.00,0.11,-272.58,-272.64,-15,563,2,17.4,4.5,-23.9,17.4,4.7,-23.4,5.73,2.64,-15.1,23.8
2013-11-16 01:25:00,0.0,1.90675,0.00035,399.333,0.000,0.1138,0.0007,140.004,45.000,31560.17040,1.90885,399.885,30.330,45.060,45.000,0.00,0.11,-272.59,-272.64,-15,563,2,17.4,4.5,-23.9,17.5,4.7,-23.3,5.73,2.70,-15.0,23.8
2013-11-16 01:26:00,0.0,1.90630,0.00022,399.327,0.008,0.1137,0.0002,139.999,45.000,31558.25268,1.90854,399.876,30.316,45.060,45.000,0.00,0.11,-272.58,-272.64,-15,563,2,17.4,4.5,-23.9,17.5,4.7,-23.3,5.73,2.58,-15.0,23.8
2013-11-16 01:27:00,0.0,1.90654,0.00010,399.316,0.000,0.1134,0.0012,140.006,45.000,31563.77578,1.90866,399.862,30.329,45.060,45.000,0.00,0.11,-272.58,-272.64,-15,563,2,17.4,4.5,-23.9,17.5,4.7,-23.4,5.73,2.56,-15.1,23.8
2013-11-16 01:28:00,0.0,1.90660,0.00030,399.340,0.008,0.1115,0.0030,140.005,45.000,31565.01380,1.90865,399.876,30.346,45.060,45.000,0.00,0.11,-272.58,-272.65,-15,564,2,17.4,4.4,-24.0,17.5,4.6,-23.5,5.73,2.69,-15.0,23.8
2013-11-16 01:29:00,0.0,1.90702,0.00041,399.334,0.000,0.1111,0.0012,140.002,45.000,31564.31287,1.90916,399.868,30.360,45.059,45.000,0.00,0.11,-272.58,-272.64,-15,563,2,17.4,4.4,-24.1,17.5,4.6,-23.6,5.73,2.65,-15.1,23.9
2013-11-16 01:30:00,0.0,1.90654,0.00019,399.303,0.034,0.1109,0.0010,139.996,45.000,31563.49630,1.90867,399.841,30.357,45.059,45.000,0.00,0.11,-272.58,-272.64,-15,564,2,17.5,4.4,-24.1,17.6,4.6,-23.6,5.73,2.54,-15.0,23.9
2013-11-16 01:31:00,0.0,1.90646,0.00040,399.265,0.000,0.1132,0.0014,140.000,45.000,31564.60414,1.90846,399.808,30.375,45.059,45.000,0.00,0.11,-272.58,-272.64,-15,564,2,17.5,4.4,-24.0,17.6,4.6,-23.5,5.73,2.62,-15.0,23.9
2013-11-16 01:32:00,0.0,1.90644,0.00007,399.312,0.036,0.1125,0.0012,140.004,45.000,31564.91619,1.90862,399.850,30.375,45.059,45.000,0.00,0.11,-272.58,-272.65,-15,563,2,17.5,4.4,-24.0,17.6,4.6,-23.5,5.73,2.70,-15.0,23.9
2013-11-16 01:33:00,0.0,1.90657,0.00036,399.316,0.010,0.1128,0.0028,140.001,45.000,31565.84163,1.90870,399.858,30.375,45.059,45.000,0.00,0.11,-272.58,-272.64,-15,564,2,17.5,4.4,-24.0,17.6,4.6,-23.5,5.73,2.61,-15.0,23.9
2013-11-16 01:34:00,0.0,1.90646,0.00020,399.333,0.000,0.1126,0.0004,140.001,45.000,31565.15086,1.90848,399.872,30.375,45.059,45.000,0.00,0.11,-272.58,-272.64,-15,564,2,17.5,4.4,-24.0,17.6,4.6,-23.5,5.73,2.55,-15.0,23.8
2013-11-16 01:35:00,0.0,1.90673,0.00035,399.285,0.031,0.1126,0.0022,140.008,45.000,31568.50004,1.90878,399.835,30.375,45.059,45.000,0.00,0.11,-272.58,-272.64,-15,563,2,17.4,4.4,-24.0,17.6,4.6,-23.5,5.73,2.67,-15.0,23.8
2013-11-16 01:36:00,0.0,1.90724,0.00034,399.305,0.036,0.1099,0.0009,140.001,45.000,31564.84506,1.90927,399.825,30.375,45.060,45.000,0.00,0.11,-272.58,-272.64,-15,564,2,17.4,4.4,-24.1,17.5,4.6,-23.6,5.73,2.68,-15.0,23.8
2013-11-16 01:37:00,0.0,1.90694,0.00077,399.383,0.022,0.1091,0.0021,139.998,45.000,31565.08834,1.90920,399.904,30.379,45.060,45.000,0.00,0.11,-272.58,-272.64,-15,564,2,17.4,4.3,-24.3,17.5,4.5,-23.7,5.73,2.56,-15.0,23.8
2013-11-16 01:38:00,0.0,1.90684,0.00041,399.393,0.000,0.1098,0.0013,140.005,45.000,31566.92737,1.90877,399.920,30.375,45.060,45.000,0.00,0.11,-272.58,-272.65,-15,563,2,17.4,4.3,-24.3,17.5,4.5,-23.7,5.73,2.58,-15.0,23.8
2013-11-16 01:39:00,0.0,1.90729,0.00023,399.393,0.000,0.1098,0.0024,140.005,45.000,31569.11302,1.90923,399.921,30.379,45.060,45.000,0.00,0.11,-272.58,-272.64,-15,564,2,17.4,4.3,-24.2,17.5,4.5,-23.7,5.73,2.70,-15.0,23.8
2013-11-16 01:40:00,0.0,1.90690,0.00023,399.449,0.057,0.1073,0.0028,140.003,45.000,31568.32487,1.90895,399.957,30.375,45.060,45.000,0.00,0.11,-272.58,-272.64,-15,564,2,17.4,4.3,-24.4,17.5,4.5,-23.8,5.73,2.63,-15.0,23.8
2013-11-16 01:41:00,0.0,1.90729,0.00047,399.506,0.000,0.1095,0.0021,140.007,45.000,31568.18050,1.90927,400.028,30.375,45.060,45.000,0.00,0.11,-272.58,-272.64,-15,563,2,17.4,4.3,-24.4,17.5,4.4,-23.9,5.73,2.54,-15.0,23.8
2013-11-16 01:42:00,0.0,1.90709,0.00060,399.486,0.028,0.1072,0.0003,140.004,45.000,31569.94118,1.90921,400.012,30.375,45.060,45.000,0.00,0.11,-272.58,-272.64,-15,564,2,17.4,4.2,-24.5,17.5,4.4,-24.0,5.73,2.63,-15.0,23.8
2013-11-16 01:43:00,0.0,1.90733,0.00072,399.446,0.000,0.1082,0.0025,140.003,45.000,31566.32899,1.90941,399.966,30.375,45.060,45.000,0.00,0.11,-272.58,-272.64,-15,564,2,17.4,4.2,-24.5,17.5,4.4,-24.0,5.73,2.70,-15.0,23.8
2013-11-16 01:44:00,0.0,1.90676,0.00079,399.392,0.082,0.1073,0.0018,140.001,45.000,31564.42043,1.90890,399.926,30.375,45.060,45.000,0.00,0.11,-272.58,-272.64,-15,563,2,17.4,4.2,-24.4,17.5,4.4,-23.8,5.73,2.59,-15.0,23.8
2013-11-16 01:45:00,0.0,1.90620,0.00030,399.209,0.052,0.1150,0.0019,140.001,45.000,31565.34238,1.90835,399.766,30.376,45.060,45.000,0.00,0.11,-272.58,-272.64,-15,564,2,17.4,4.4,-24.1,17.5,4.6,-23.6,5.73,2.56,-15.0,23.9
2013-11-16 01:46:00,0.0,1.90575,0.00021,399.148,0.010,0.1167,0.0008,140.011,45.000,31565.96179,1.90804,399.711,30.381,45.059,45.000,0.00,0.11,-272.58,-272.64,-15,564,2,17.4,4.5,-23.7,17.5,4.7,-23.2,5.73,2.67,-15.0,23.9